Weather History for Fergus Falls, MN

Change the Weather History Date:

Tuesday, June 24, 2014

  Actual Average Record
Temperature  
Mean Temperature 63 °F -  
Max Temperature 69 °F 77 °F 91 °F (1954)
Min Temperature 57 °F 57 °F 44 °F (1958)
Degree Days  
Heating Degree Days 2    
Growing Degree Days 13 (Base 50)    
Moisture  
Dew Point 57 °F    
Average Humidity 80    
Maximum Humidity 100    
Minimum Humidity 60    
Precipitation  
Precipitation 0.00 in - - ()
Sea Level Pressure  
Sea Level Pressure 29.91 in    
Wind  
Wind Speed 7 mph (NW)    
Max Wind Speed 15 mph    
Max Gust Speed 20 mph    
Visibility 10 miles    
Events Fog    
Averages and records for this station are not official NWS values.
T = Trace of Precipitation, MM = Missing Value Source: NWS Daily Summary

Daily Weather History Graph

Daily Weather History Graph

Search for Another Location

Airport:

Trip Planner

Search our weather history database for the weather conditions in past years. The results will help you decide how hot, cold, wet, or windy it might be!

Date:

Astronomy

Jun. 24, 2014 Rise Set
Actual Time 5:33 AM CDT 9:20 PM CDT
Civil Twilight 4:54 AM CDT 9:59 PM CDT
Nautical Twilight 4:01 AM CDT 10:52 PM CDT
Astronomical Twilight 2:46 AM CDT 12:07 AM CDT
Moon 3:48 AM CDT (6/24) 6:53 PM CDT (6/24)
Length of Visible Light 17h 05m
Length of Day
15h 47m
Waning Crescent, 7% of the Moon is Illuminated
Jun 24
Waning Crescent
Jun 27
New
Jul 5
First Quarter
Jul 12
Full
Jul 18
Last Quarter

Hourly Weather History & Observations

Time (CDT) Temp. Dew Point Humidity Pressure Visibility Wind Dir Wind Speed Gust Speed Precip Events Conditions
12:14 AM 64.4 °F 55.4 °F 73% 29.85 in 10.0 mi NNW 5.8 mph - N/A   Clear
12:34 AM 64.4 °F 55.4 °F 73% 29.85 in 10.0 mi NNW 4.6 mph - N/A   Clear
12:54 AM 64.4 °F 57.2 °F 77% 29.85 in 10.0 mi NNW 5.8 mph - N/A   Clear
1:14 AM 62.6 °F 55.4 °F 77% 29.85 in 10.0 mi NNW 3.5 mph - N/A   Clear
1:34 AM 64.4 °F 57.2 °F 77% 29.85 in 10.0 mi North 3.5 mph - N/A   Clear
1:54 AM 62.6 °F 57.2 °F 82% 29.86 in 10.0 mi WNW 3.5 mph - N/A   Clear
2:14 AM 60.8 °F 57.2 °F 88% 29.86 in 10.0 mi WNW 5.8 mph - N/A   Clear
2:34 AM 60.8 °F 57.2 °F 88% 29.86 in 10.0 mi West 5.8 mph - N/A   Clear
2:54 AM 60.8 °F 57.2 °F 88% 29.87 in 10.0 mi West 4.6 mph - N/A   Clear
3:14 AM 60.8 °F 57.2 °F 88% 29.87 in 10.0 mi West 3.5 mph - N/A   Clear
3:34 AM 60.8 °F 57.2 °F 88% 29.86 in 10.0 mi WNW 3.5 mph - N/A   Clear
3:54 AM 60.8 °F 57.2 °F 88% 29.86 in 10.0 mi WNW 4.6 mph - N/A   Clear
4:14 AM 59.0 °F 57.2 °F 94% 29.87 in 10.0 mi NW 4.6 mph - N/A   Clear
4:34 AM 59.0 °F 57.2 °F 94% 29.87 in 10.0 mi WNW 3.5 mph - N/A   Clear
4:54 AM 57.2 °F 55.4 °F 94% 29.87 in 10.0 mi WNW 5.8 mph - N/A   Clear
5:13 AM 57.2 °F 55.4 °F 94% 29.87 in 10.0 mi WNW 4.6 mph - N/A   Clear
5:34 AM 57.2 °F 55.4 °F 94% 29.87 in 10.0 mi WNW 3.5 mph - N/A   Clear
5:54 AM 57.2 °F 55.4 °F 94% 29.88 in 10.0 mi WNW 6.9 mph - N/A   Clear
6:14 AM 59.0 °F 57.2 °F 94% 29.88 in 1.0 mi NNW 8.1 mph - N/A   Mostly Cloudy
6:34 AM 60.8 °F 59.0 °F 94% 29.88 in 0.2 mi North 8.1 mph - N/A Fog Fog
6:54 AM 60.8 °F 60.8 °F 100% 29.89 in 0.5 mi NNW 8.1 mph - N/A Fog Fog
7:14 AM 62.6 °F 60.8 °F 94% 29.90 in 7.0 mi North 5.8 mph - N/A   Overcast
7:34 AM 62.6 °F 60.8 °F 94% 29.90 in 10.0 mi NNW 9.2 mph - N/A   Overcast
7:54 AM 62.6 °F 60.8 °F 94% 29.90 in 10.0 mi NW 9.2 mph - N/A   Overcast
8:14 AM 64.4 °F 60.8 °F 88% 29.90 in 10.0 mi NW 8.1 mph - N/A   Overcast
8:34 AM 64.4 °F 60.8 °F 88% 29.90 in 10.0 mi NNW 9.2 mph - N/A   Overcast
9:14 AM 64.4 °F 60.8 °F 88% 29.92 in 10.0 mi NW 11.5 mph - N/A   Overcast
9:34 AM 62.6 °F 60.8 °F 94% 29.93 in 10.0 mi NNW 10.4 mph - N/A   Overcast
9:54 AM 64.4 °F 60.8 °F 88% 29.93 in 10.0 mi NNW 12.7 mph 17.3 mph N/A   Overcast
10:14 AM 66.2 °F 59.0 °F 78% 29.93 in 10.0 mi North 12.7 mph 16.1 mph N/A   Overcast
10:34 AM 66.2 °F 59.0 °F 78% 29.92 in 10.0 mi North 9.2 mph - N/A   Overcast
10:54 AM 66.2 °F 57.2 °F 73% 29.92 in 10.0 mi NNW 10.4 mph 16.1 mph N/A   Mostly Cloudy
11:14 AM 66.2 °F 57.2 °F 73% 29.93 in 10.0 mi NNW 11.5 mph - N/A   Mostly Cloudy
11:34 AM 66.2 °F 57.2 °F 73% 29.93 in 10.0 mi NW 11.5 mph - N/A   Overcast
11:54 AM 68.0 °F 57.2 °F 68% 29.93 in 10.0 mi NW 6.9 mph - N/A   Mostly Cloudy
12:14 PM 66.2 °F 57.2 °F 73% 29.93 in 10.0 mi NNW 12.7 mph - N/A   Overcast
12:34 PM 66.2 °F 57.2 °F 73% 29.93 in 10.0 mi NW 12.7 mph 17.3 mph N/A   Overcast
12:54 PM 66.2 °F 55.4 °F 68% 29.94 in 10.0 mi NNW 11.5 mph - N/A   Overcast
1:14 PM 66.2 °F 55.4 °F 68% 29.94 in 10.0 mi NNW 6.9 mph - N/A   Overcast
1:34 PM 66.2 °F 55.4 °F 68% 29.94 in 10.0 mi NW 10.4 mph - N/A   Overcast
1:54 PM 66.2 °F 55.4 °F 68% 29.93 in 10.0 mi NNW 9.2 mph - N/A   Overcast
2:14 PM 66.2 °F 55.4 °F 68% 29.93 in 10.0 mi NW 11.5 mph - N/A   Overcast
2:34 PM 69.8 °F 55.4 °F 60% 29.93 in 10.0 mi NNW 10.4 mph - N/A   Mostly Cloudy
2:54 PM 69.8 °F 55.4 °F 60% 29.93 in 10.0 mi NW 11.5 mph - N/A   Overcast
3:14 PM 69.8 °F 55.4 °F 60% 29.93 in 10.0 mi NW 9.2 mph - N/A   Overcast
3:34 PM 69.8 °F 55.4 °F 60% 29.93 in 10.0 mi WNW 11.5 mph - N/A   Overcast
3:54 PM 69.8 °F 57.2 °F 64% 29.93 in 10.0 mi WNW 10.4 mph - N/A   Overcast
4:14 PM 69.8 °F 57.2 °F 64% 29.93 in 10.0 mi NW 9.2 mph - N/A   Overcast
4:33 PM 68.0 °F 57.2 °F 68% 29.93 in 10.0 mi NW 9.2 mph - N/A   Overcast
4:54 PM 69.8 °F 57.2 °F 64% 29.93 in 10.0 mi NNW 9.2 mph - N/A   Overcast
5:14 PM 68.0 °F 55.4 °F 64% 29.93 in 10.0 mi NNW 11.5 mph - N/A   Overcast
5:33 PM 66.2 °F 55.4 °F 68% 29.94 in 10.0 mi NNW 10.4 mph - N/A   Overcast
5:54 PM 66.2 °F 55.4 °F 68% 29.94 in 10.0 mi NNW 10.4 mph 17.3 mph N/A   Overcast
6:14 PM 66.2 °F 55.4 °F 68% 29.93 in 10.0 mi North 8.1 mph - N/A   Overcast
6:33 PM 68.0 °F 55.4 °F 64% 29.93 in 10.0 mi North 8.1 mph - N/A   Overcast
6:54 PM 69.8 °F 55.4 °F 60% 29.93 in 10.0 mi North 10.4 mph - N/A   Mostly Cloudy
7:14 PM 66.2 °F 55.4 °F 68% 29.93 in 10.0 mi NNW 8.1 mph - N/A   Scattered Clouds
7:34 PM 66.2 °F 57.2 °F 73% 29.93 in 10.0 mi NNW 15.0 mph 19.6 mph N/A   Mostly Cloudy
7:54 PM 66.2 °F 57.2 °F 73% 29.93 in 10.0 mi North 9.2 mph - N/A   Scattered Clouds
8:14 PM 64.4 °F 57.2 °F 77% 29.93 in 10.0 mi North 9.2 mph - N/A   Clear
8:33 PM 64.4 °F 57.2 °F 77% 29.93 in 10.0 mi North 11.5 mph - N/A   Scattered Clouds
8:54 PM 62.6 °F 60.8 °F 94% 29.94 in 10.0 mi NNW 10.4 mph - N/A   Scattered Clouds
9:34 PM 62.6 °F 59.0 °F 88% 29.94 in 10.0 mi NNW 10.4 mph - N/A   Scattered Clouds
9:54 PM 62.6 °F 60.8 °F 94% 29.95 in 10.0 mi North 9.2 mph 16.1 mph N/A   Mostly Cloudy
10:14 PM 62.6 °F 60.8 °F 94% 29.95 in 10.0 mi North 10.4 mph - N/A   Mostly Cloudy
10:34 PM 62.6 °F 59.0 °F 88% 29.95 in 10.0 mi NNW 10.4 mph - N/A   Overcast
10:54 PM 62.6 °F 60.8 °F 94% 29.96 in 10.0 mi NNW 5.8 mph - N/A   Overcast
11:14 PM 62.6 °F 59.0 °F 88% 29.96 in 10.0 mi NNW 6.9 mph - N/A   Mostly Cloudy
11:34 PM 62.6 °F 59.0 °F 88% 29.97 in 10.0 mi NNW 5.8 mph - N/A   Overcast
11:54 PM 62.6 °F 59.0 °F 88% 29.97 in 10.0 mi NW 6.9 mph - N/A   Overcast